Location: Potomac
(46.8816°N, 113.5795°W)
Time: 12:20:44
(UTC+00:00)

ITUPSAT 1 - Visible Passes

Search period start: 28 June 2022 00:00
Search period end: 08 July 2022 00:00
Orbit: 700 x 712 km, 98.6° (Epoch: 28 June)

Date Brightness Start Highest point End Pass type
(mag) Time Alt. Az. Time Alt. Az. Time Alt. Az.
28 Jun ? 05:29:07 10° NNW 05:32:29 20° WNW 05:35:52 10° WSW visible
29 Jun ? 04:34:19 10° N 04:38:58 54° WNW 04:43:38 10° SSW visible
30 Jun ? 05:18:46 10° N 05:22:32 24° WNW 05:26:18 10° WSW visible
01 Jul ? 04:24:11 10° N 04:28:57 68° WNW 04:33:42 10° SSW visible
01 Jul ? 06:04:53 10° NW 06:05:49 11° NW 06:06:46 10° WNW visible
02 Jul ? 05:08:30 10° N 05:12:34 28° WNW 05:16:38 10° WSW visible
03 Jul ? 04:14:05 10° NNE 04:18:53 84° WNW 04:23:41 10° SSW visible
03 Jul ? 05:53:48 10° NNW 05:55:55 13° NW 05:58:02 10° W visible
04 Jul ? 04:58:15 10° N 05:02:34 34° WNW 05:06:53 10° SW visible
05 Jul ? 04:04:00 10° NNE 04:08:49 79° ESE 04:13:37 10° S visible
05 Jul ? 05:43:11 10° NNW 05:46:00 16° WNW 05:48:48 10° W visible
06 Jul ? 04:48:03 10° N 04:52:34 42° WNW 04:57:04 10° SW visible
07 Jul ? 05:32:44 10° NNW 05:36:03 19° WNW 05:39:21 10° WSW visible
